Weather in Krapivna

Russia / Smolensk Oblast     54°11′52″N   33°34′22″E
temp.,
°C
wind,
m/s
gust,
m/s
humid.,
%
clouds,
%
prec.,
mm/h
press.,
hPa
HPBL,
m
23 june, wed
wed2300:00+21se3890100 0.0 1019148
03:00+20se2495100 0.0 102071
06:00+21ese25885 0.0 1020125
09:00+26ese35646 0.0 1020473
12:00+30se45487 0.0 10201593
15:00+32se34385 0.0 10192499
18:00+31e34485 0.0 1019671
21:00+23ese39745 0.0 1020184
24 june, thu
thu2400:00+21sse24885 0.0 102071
03:00+20se22955 0.0 102015
06:00+21ese23902 0.0 102080
09:00+27ese24665 0.0 1020497
12:00+31sse33495 0.0 10201344
15:00+32ssw22393 0.0 10191696
18:00+32ssw22470 0.0 1018682
21:00+25sse016824 0.0 101811
25 june, fri
fri2500:00+23s23771 0.0 101840
03:00+20ssw22926 0.8 101818
06:00+21s23915 0.0 101874
09:00+27s23685 0.0 1017440
12:00+31s34485 0.0 10171443
15:00+32s33415 0.0 10161985
18:00+31sw454730 0.0 10141087
21:00+18e61492100 4.9 1017366
26 june, sat
sat2600:00+18s248649 0.1 101573
03:00+17se23924 0.1 101551
06:00+19sse239334 0.0 1014109
09:00+25s23669 0.0 1014449
12:00+29sse335199 0.0 1013940
15:00+31ssw23435 0.0 10131777
18:00+30wnw234945 0.0 10091341
21:00+18e2579100 0.8 101294
27 june, sun
sun2700:00+17s248788 0.8 101356
03:00+17se009399 3.2 101311
06:00+18ese249591 0.0 1013108
09:00+24s357353 0.0 1012386
12:00+28s356467 0.8 1012895
15:00+28sse346388 2.4 1012935
18:00+23sse238071 0.9 1012179
21:00+21se2291100 1.1 101221